QTR80K LIRF-OTHH

Flight info

Callsign QTR80K
Flight time 4h 47m
Altitude 39000
Route SIPRO DCT IPKAM DCT AMSOR DCT EKTOL DCT DOGUS DCT ULFIG DCT LATAN DCT OSDES DCT TRL DCT GUDIS/N0486F410 DCT KAVOS DCT EVORA DCT LAKTO L560 SERMA L550 KARIK B411 DEESA Y415 TAMRO N318 HAYYA
Aircraft A359/H-SDE2E3GHIJ3J4J5LM1ORWXY/LB1D1

Departure

Time 2026-02-17 11:17
Airport Rome–Fiumicino Leonardo da Vinci International Airport (LIRF)

Arrival

Time 2026-02-17 16:04
Airport Hamad International Airport (OTHH)
Time Latitude Longitude Altitude Speed Heading
2026-02-17 10:44 41.79484 12.24193 20 ft 0 kts 340°
2026-02-17 11:01 41.79477 12.24197 22 ft 2 kts 340°
2026-02-17 11:01 41.79458 12.24206 23 ft 3 kts 340°
2026-02-17 11:01 41.79439 12.24215 -2 ft 3 kts 340°
2026-02-17 11:01 41.79421 12.24225 24 ft 3 kts 330°
2026-02-17 11:02 41.79404 12.24240 23 ft 3 kts 316°
2026-02-17 11:02 41.79390 12.24260 23 ft 3 kts 306°
2026-02-17 11:02 41.79384 12.24271 23 ft 4 kts 304°
2026-02-17 11:03 41.79395 12.24234 23 ft 3 kts 277°
2026-02-17 11:03 41.79391 12.24209 24 ft 3 kts 251°
2026-02-17 11:03 41.79385 12.24186 23 ft 3 kts 249°
2026-02-17 11:03 41.79378 12.24161 24 ft 3 kts 250°
2026-02-17 11:04 41.79372 12.24141 21 ft 1 kts 250°
2026-02-17 11:04 41.79372 12.24139 21 ft 4 kts 250°
2026-02-17 11:07 41.79370 12.24131 23 ft 4 kts 250°
2026-02-17 11:07 41.79356 12.24061 23 ft 10 kts 258°
2026-02-17 11:08 41.79334 12.23963 23 ft 11 kts 249°
2026-02-17 11:08 41.79278 12.23921 24 ft 10 kts 174°
2026-02-17 11:08 41.79204 12.23944 24 ft 12 kts 165°
2026-02-17 11:08 41.79114 12.23979 25 ft 15 kts 163°
2026-02-17 11:09 41.79009 12.24021 23 ft 17 kts 163°
2026-02-17 11:09 41.78896 12.24075 25 ft 18 kts 158°
2026-02-17 11:09 41.78768 12.24133 25 ft 20 kts 163°
2026-02-17 11:09 41.78626 12.24192 24 ft 22 kts 162°
2026-02-17 11:10 41.78473 12.24256 27 ft 21 kts 163°
2026-02-17 11:10 41.78391 12.24290 25 ft 13 kts 162°
2026-02-17 11:10 41.78319 12.24249 25 ft 13 kts 244°
2026-02-17 11:11 41.78303 12.24184 23 ft 0 kts 252°
2026-02-17 11:16 41.78302 12.24182 23 ft 3 kts 252°
2026-02-17 11:16 41.78282 12.24096 23 ft 11 kts 252°
2026-02-17 11:16 41.78296 12.24010 25 ft 9 kts 308°
2026-02-17 11:17 41.78448 12.23937 24 ft 51 kts 342°
2026-02-17 11:17 41.78990 12.23709 26 ft 113 kts 342°
2026-02-17 11:17 41.79932 12.23322 55 ft 162 kts 339°
2026-02-17 11:17 41.80965 12.22915 913 ft 148 kts 341°
2026-02-17 11:18 41.81895 12.22264 1466 ft 161 kts 316°
2026-02-17 11:18 41.82351 12.20830 1922 ft 177 kts 281°
2026-02-17 11:18 41.82348 12.19144 2370 ft 184 kts 282°
2026-02-17 11:19 41.83362 12.15820 2961 ft 212 kts 278°
2026-02-17 11:19 41.82915 12.13827 3214 ft 245 kts 239°
2026-02-17 11:19 41.81493 12.12394 3549 ft 272 kts 202°
2026-02-17 11:19 41.79571 12.12197 3917 ft 285 kts 171°
2026-02-17 11:20 41.77627 12.12785 4004 ft 292 kts 166°
2026-02-17 11:20 41.75529 12.13357 4006 ft 322 kts 171°
2026-02-17 11:20 41.73243 12.13753 4001 ft 337 kts 173°
2026-02-17 11:20 41.70983 12.14587 4000 ft 339 kts 152°
2026-02-17 11:21 41.69071 12.16409 4008 ft 337 kts 138°
2026-02-17 11:21 41.67298 12.18480 4092 ft 340 kts 136°
2026-02-17 11:21 41.65512 12.20578 4712 ft 342 kts 136°
2026-02-17 11:21 41.63715 12.22659 5466 ft 342 kts 137°
2026-02-17 11:22 41.61905 12.24732 6120 ft 344 kts 137°
2026-02-17 11:22 41.60131 12.26888 6730 ft 346 kts 129°
2026-02-17 11:22 41.59231 12.28684 7100 ft 343 kts 111°
2026-02-17 11:23 41.59257 12.34732 8266 ft 330 kts 58°
2026-02-17 11:23 41.60506 12.37274 8910 ft 330 kts 54°
2026-02-17 11:23 41.61234 12.40242 9496 ft 347 kts 80°
2026-02-17 11:23 41.61017 12.43504 10088 ft 359 kts 98°
2026-02-17 11:24 41.60469 12.46768 10407 ft 371 kts 99°
2026-02-17 11:24 41.59909 12.50203 10891 ft 376 kts 98°
2026-02-17 11:24 41.59409 12.53597 11439 ft 379 kts 97°
2026-02-17 11:24 41.58932 12.57074 11995 ft 382 kts 96°
2026-02-17 11:25 41.58470 12.60594 12561 ft 386 kts 96°
2026-02-17 11:25 41.58017 12.64138 13123 ft 389 kts 95°
2026-02-17 11:25 41.57559 12.67758 13677 ft 392 kts 95°
2026-02-17 11:25 41.57106 12.71367 14135 ft 396 kts 95°
2026-02-17 11:26 41.56655 12.74962 14606 ft 400 kts 95°
2026-02-17 11:26 41.56194 12.78634 15117 ft 403 kts 95°
2026-02-17 11:26 41.55729 12.82323 15691 ft 404 kts 95°
2026-02-17 11:27 41.54788 12.89779 16687 ft 411 kts 95°
2026-02-17 11:27 41.54310 12.93558 17174 ft 414 kts 95°
2026-02-17 11:27 41.53827 12.97364 17671 ft 418 kts 94°
2026-02-17 11:27 41.53338 13.01199 18149 ft 421 kts 94°
2026-02-17 11:28 41.52845 13.05061 18547 ft 425 kts 94°
2026-02-17 11:28 41.52346 13.08977 18841 ft 431 kts 94°
2026-02-17 11:28 41.51837 13.12946 19104 ft 437 kts 94°
2026-02-17 11:28 41.51321 13.16955 19514 ft 439 kts 94°
2026-02-17 11:29 41.50801 13.20978 19910 ft 442 kts 94°
2026-02-17 11:29 41.50274 13.25047 20131 ft 449 kts 94°
2026-02-17 11:29 41.49740 13.29164 20566 ft 451 kts 94°
2026-02-17 11:29 41.49200 13.33293 20915 ft 454 kts 93°
2026-02-17 11:30 41.48655 13.37465 21258 ft 459 kts 93°
2026-02-17 11:30 41.48103 13.41674 21604 ft 463 kts 93°
2026-02-17 11:30 41.47546 13.45923 21938 ft 467 kts 93°
2026-02-17 11:31 41.46412 13.54499 22813 ft 469 kts 93°
2026-02-17 11:31 41.45841 13.58793 23141 ft 473 kts 93°
2026-02-17 11:31 41.45266 13.63121 23387 ft 477 kts 93°
2026-02-17 11:31 41.44626 13.67482 23640 ft 483 kts 97°
2026-02-17 11:32 41.43717 13.71824 23910 ft 489 kts 101°
2026-02-17 11:32 41.42664 13.76154 24163 ft 493 kts 103°
2026-02-17 11:32 41.41534 13.80486 24408 ft 497 kts 103°
2026-02-17 11:32 41.40370 13.84837 24682 ft 500 kts 104°
2026-02-17 11:33 41.39201 13.89199 25105 ft 500 kts 104°
2026-02-17 11:33 41.38039 13.93557 25499 ft 501 kts 104°
2026-02-17 11:33 41.36881 13.97940 25781 ft 504 kts 104°
2026-02-17 11:33 41.35723 14.02356 26029 ft 508 kts 104°
2026-02-17 11:34 41.34558 14.06812 26217 ft 511 kts 104°
2026-02-17 11:34 41.33390 14.11284 26491 ft 514 kts 104°
2026-02-17 11:34 41.32212 14.15790 26777 ft 517 kts 104°
2026-02-17 11:35 41.29842 14.24820 27235 ft 523 kts 104°
2026-02-17 11:35 41.28641 14.29385 27621 ft 524 kts 104°
2026-02-17 11:35 41.27433 14.33966 27885 ft 527 kts 104°
2026-02-17 11:35 41.26214 14.38577 28148 ft 531 kts 104°
2026-02-17 11:36 41.24985 14.43217 28422 ft 534 kts 104°
2026-02-17 11:36 41.23745 14.47887 28699 ft 537 kts 104°
2026-02-17 11:36 41.22497 14.52579 28951 ft 540 kts 104°
2026-02-17 11:36 41.21238 14.57301 29181 ft 544 kts 104°
2026-02-17 11:37 41.19973 14.62045 29482 ft 546 kts 103°
2026-02-17 11:37 41.18932 14.66876 29773 ft 544 kts 97°
2026-02-17 11:37 41.18081 14.71771 29991 ft 546 kts 96°
2026-02-17 11:37 41.17280 14.76699 30229 ft 547 kts 95°
2026-02-17 11:38 41.16506 14.81655 30423 ft 549 kts 95°
2026-02-17 11:38 41.15740 14.86632 30624 ft 552 kts 95°
2026-02-17 11:38 41.14967 14.91630 30849 ft 554 kts 95°
2026-02-17 11:39 41.13350 15.01640 31415 ft 556 kts 96°
2026-02-17 11:39 41.12522 15.06664 31590 ft 559 kts 96°
2026-02-17 11:39 41.11688 15.11712 31786 ft 560 kts 96°
2026-02-17 11:39 41.10852 15.16757 32050 ft 560 kts 96°
2026-02-17 11:40 41.10019 15.21809 32277 ft 561 kts 96°
2026-02-17 11:40 41.09192 15.26860 32489 ft 562 kts 96°
2026-02-17 11:40 41.08364 15.31921 32822 ft 560 kts 97°
2026-02-17 11:40 41.07541 15.36932 33299 ft 555 kts 97°
2026-02-17 11:41 41.06731 15.41856 33532 ft 556 kts 97°
2026-02-17 11:41 41.05895 15.46938 33687 ft 557 kts 97°
2026-02-17 11:41 41.05067 15.51951 33886 ft 558 kts 97°
2026-02-17 11:41 41.04234 15.56970 34106 ft 557 kts 97°
2026-02-17 11:42 41.03399 15.61978 34342 ft 557 kts 97°
2026-02-17 11:42 41.02553 15.66980 34602 ft 556 kts 99°
2026-02-17 11:42 41.01385 15.71859 34963 ft 557 kts 107°
2026-02-17 11:43 40.98485 15.81366 35419 ft 558 kts 110°
2026-02-17 11:43 40.96955 15.86080 35596 ft 558 kts 110°
2026-02-17 11:43 40.95402 15.90792 35813 ft 558 kts 110°
2026-02-17 11:43 40.93848 15.95491 36014 ft 558 kts 110°
2026-02-17 11:44 40.92293 16.00194 36244 ft 558 kts 110°
2026-02-17 11:44 40.90768 16.04817 36606 ft 554 kts 111°
2026-02-17 11:44 40.89235 16.09470 36910 ft 551 kts 111°
2026-02-17 11:44 40.87685 16.14180 37103 ft 552 kts 111°
2026-02-17 11:45 40.86175 16.18768 37270 ft 552 kts 111°
2026-02-17 11:45 40.84642 16.23418 37435 ft 552 kts 111°
2026-02-17 11:45 40.83108 16.28065 37621 ft 552 kts 111°
2026-02-17 11:45 40.81572 16.32710 37791 ft 552 kts 111°
2026-02-17 11:46 40.80029 16.37369 37828 ft 556 kts 111°
2026-02-17 11:46 40.76918 16.46734 38090 ft 557 kts 111°
2026-02-17 11:47 40.73802 16.56077 38411 ft 556 kts 111°
2026-02-17 11:47 40.72242 16.60741 38545 ft 557 kts 111°
2026-02-17 11:47 40.69114 16.70074 38573 ft 556 kts 111°
2026-02-17 11:48 40.65984 16.79384 38562 ft 555 kts 112°
2026-02-17 11:48 40.62852 16.88669 38551 ft 555 kts 112°
2026-02-17 11:49 40.59714 16.97940 38548 ft 555 kts 112°
2026-02-17 11:49 40.56567 17.07208 38544 ft 554 kts 113°
2026-02-17 11:50 40.53431 17.16410 38565 ft 550 kts 113°
2026-02-17 11:51 40.48736 17.30136 38581 ft 549 kts 113°
2026-02-17 11:51 40.45523 17.39224 38580 ft 549 kts 118°
2026-02-17 11:52 40.41016 17.47255 38573 ft 549 kts 132°
2026-02-17 11:52 40.35845 17.54662 38560 ft 551 kts 134°
2026-02-17 11:53 40.30562 17.61945 38545 ft 551 kts 135°
2026-02-17 11:53 40.25319 17.69183 38530 ft 551 kts 134°
2026-02-17 11:54 40.20057 17.76482 38545 ft 551 kts 135°
2026-02-17 11:54 40.14811 17.83764 38532 ft 550 kts 135°
2026-02-17 11:55 40.06918 17.94689 38534 ft 552 kts 135°
2026-02-17 11:55 40.01644 18.01965 38533 ft 552 kts 135°
2026-02-17 11:56 39.96364 18.09232 38523 ft 552 kts 135°
2026-02-17 11:56 39.91080 18.16487 38507 ft 552 kts 135°
2026-02-17 11:57 39.85790 18.23731 38503 ft 552 kts 135°
2026-02-17 11:57 39.80491 18.30971 38507 ft 553 kts 135°
2026-02-17 11:58 39.75185 18.38203 38508 ft 553 kts 135°
2026-02-17 11:59 39.67226 18.49020 38509 ft 550 kts 135°
2026-02-17 11:59 39.61945 18.56176 38487 ft 548 kts 135°
2026-02-17 12:00 39.56657 18.63324 38510 ft 549 kts 135°
2026-02-17 12:00 39.51358 18.70468 38511 ft 550 kts 135°
2026-02-17 12:01 39.46049 18.77612 38511 ft 550 kts 135°
2026-02-17 12:01 39.40782 18.84682 38514 ft 549 kts 135°
2026-02-17 12:02 39.35487 18.91773 38515 ft 548 kts 136°
2026-02-17 12:02 39.30257 18.98936 38513 ft 550 kts 130°
2026-02-17 12:03 39.23909 19.11334 38521 ft 553 kts 121°
2026-02-17 12:03 39.19946 19.19816 38514 ft 550 kts 121°
2026-02-17 12:04 39.16000 19.28256 38507 ft 549 kts 122°
2026-02-17 12:04 39.12033 19.36656 38506 ft 549 kts 122°
2026-02-17 12:05 39.08049 19.45039 38511 ft 549 kts 122°
2026-02-17 12:05 39.04060 19.53403 38506 ft 547 kts 122°
2026-02-17 12:06 39.00081 19.61729 38506 ft 546 kts 122°
2026-02-17 12:07 38.94106 19.74192 38505 ft 546 kts 122°
2026-02-17 12:07 38.90115 19.82489 38502 ft 546 kts 122°
2026-02-17 12:08 38.86135 19.90745 38504 ft 543 kts 122°
2026-02-17 12:08 38.82160 19.98967 38498 ft 542 kts 123°
2026-02-17 12:09 38.78178 20.07181 38494 ft 542 kts 123°
2026-02-17 12:09 38.74191 20.15386 38501 ft 542 kts 123°
2026-02-17 12:10 38.70878 20.22189 38494 ft 541 kts 123°
2026-02-17 12:10 38.66242 20.31683 38476 ft 541 kts 123°
2026-02-17 12:11 38.60883 20.42623 38493 ft 543 kts 123°
2026-02-17 12:11 38.56865 20.50800 38486 ft 543 kts 124°
2026-02-17 12:12 38.52849 20.58956 38489 ft 542 kts 124°
2026-02-17 12:12 38.48830 20.67095 38487 ft 542 kts 124°
2026-02-17 12:13 38.44805 20.75225 38482 ft 542 kts 124°
2026-02-17 12:13 38.40776 20.83342 38477 ft 542 kts 124°
2026-02-17 12:14 38.36714 20.91403 38479 ft 538 kts 128°
2026-02-17 12:15 38.29699 21.02440 38475 ft 538 kts 133°
2026-02-17 12:15 38.24842 21.09703 38491 ft 539 kts 133°
2026-02-17 12:16 38.19973 21.16963 38497 ft 539 kts 133°
2026-02-17 12:16 38.15124 21.24205 38498 ft 537 kts 133°
2026-02-17 12:17 38.10286 21.31426 38498 ft 537 kts 133°
2026-02-17 12:17 38.05448 21.38633 38497 ft 536 kts 133°
2026-02-17 12:18 38.00602 21.45834 38484 ft 537 kts 133°
2026-02-17 12:18 37.95734 21.53050 38505 ft 539 kts 133°
2026-02-17 12:19 37.88414 21.63874 38529 ft 539 kts 133°
2026-02-17 12:19 37.83530 21.71076 38526 ft 539 kts 134°
2026-02-17 12:20 37.78639 21.78272 38526 ft 539 kts 134°
2026-02-17 12:20 37.73754 21.85444 38532 ft 536 kts 134°
2026-02-17 12:21 37.68894 21.92564 38529 ft 535 kts 134°
2026-02-17 12:21 37.64020 21.99685 38542 ft 537 kts 134°
2026-02-17 12:22 37.59136 22.06808 38539 ft 537 kts 134°
2026-02-17 12:23 37.51806 22.17469 38543 ft 535 kts 134°
2026-02-17 12:23 37.46943 22.24523 38542 ft 532 kts 134°
2026-02-17 12:24 37.42090 22.31553 38540 ft 532 kts 133°
2026-02-17 12:24 37.37831 22.39203 38527 ft 536 kts 125°
2026-02-17 12:25 37.33878 22.47192 38515 ft 539 kts 124°
2026-02-17 12:25 37.29991 22.55202 38526 ft 535 kts 124°
2026-02-17 12:26 37.26140 22.63094 38511 ft 533 kts 124°
2026-02-17 12:26 37.22248 22.71013 38517 ft 533 kts 124°
2026-02-17 12:27 37.16388 22.82877 38513 ft 534 kts 126°
2026-02-17 12:27 37.12452 22.90819 38504 ft 537 kts 126°
2026-02-17 12:28 37.08505 22.98768 38514 ft 537 kts 126°
2026-02-17 12:28 37.04550 23.06717 38510 ft 538 kts 126°
2026-02-17 12:29 37.00590 23.14657 38494 ft 539 kts 126°
2026-02-17 12:29 36.96593 23.22646 38512 ft 544 kts 126°
2026-02-17 12:30 36.92644 23.30525 38525 ft 544 kts 126°
2026-02-17 12:31 36.86588 23.42576 38527 ft 544 kts 126°
2026-02-17 12:31 36.82554 23.50578 38529 ft 546 kts 127°
2026-02-17 12:32 36.78503 23.58591 38537 ft 546 kts 127°
2026-02-17 12:32 36.74445 23.66603 38542 ft 546 kts 127°
2026-02-17 12:33 36.70379 23.74609 38542 ft 546 kts 127°
2026-02-17 12:33 36.66315 23.82593 38550 ft 546 kts 127°
2026-02-17 12:34 36.62241 23.90578 38548 ft 546 kts 127°
2026-02-17 12:34 36.58144 23.98584 38565 ft 549 kts 127°
2026-02-17 12:35 36.51981 24.10601 38566 ft 549 kts 127°
2026-02-17 12:35 36.47909 24.18521 38599 ft 547 kts 128°
2026-02-17 12:36 36.43780 24.26526 38598 ft 546 kts 128°
2026-02-17 12:36 36.39678 24.34461 38602 ft 546 kts 128°
2026-02-17 12:37 36.35597 24.42338 38599 ft 546 kts 128°
2026-02-17 12:37 36.31491 24.50245 38613 ft 545 kts 128°
2026-02-17 12:38 36.27382 24.58139 38618 ft 545 kts 128°
2026-02-17 12:39 36.21216 24.69951 38626 ft 544 kts 128°
2026-02-17 12:39 36.17104 24.77806 38643 ft 543 kts 128°
2026-02-17 12:40 36.12991 24.85644 38641 ft 543 kts 128°
2026-02-17 12:40 36.08871 24.93478 38646 ft 543 kts 128°
2026-02-17 12:41 36.04745 25.01304 38623 ft 543 kts 128°
2026-02-17 12:41 36.00632 25.09092 38646 ft 538 kts 129°
2026-02-17 12:42 35.96547 25.16810 38650 ft 537 kts 129°
2026-02-17 12:42 35.92456 25.24515 38651 ft 536 kts 129°
2026-02-17 12:43 35.86342 25.36002 38651 ft 537 kts 130°
2026-02-17 12:43 35.82231 25.43702 38654 ft 538 kts 130°
2026-02-17 12:44 35.78118 25.51394 38658 ft 538 kts 130°
2026-02-17 12:44 35.73996 25.59082 38661 ft 538 kts 130°
2026-02-17 12:45 35.69872 25.66760 38656 ft 537 kts 130°
2026-02-17 12:45 35.65762 25.74398 38661 ft 534 kts 130°
2026-02-17 12:46 35.61660 25.82000 38669 ft 533 kts 130°
2026-02-17 12:47 35.55499 25.93382 38671 ft 533 kts 130°
2026-02-17 12:47 35.51386 26.00962 38677 ft 533 kts 131°
2026-02-17 12:48 35.47275 26.08522 38680 ft 533 kts 131°
2026-02-17 12:48 35.43159 26.16076 38694 ft 532 kts 131°
2026-02-17 12:49 35.39040 26.23618 38694 ft 532 kts 131°
2026-02-17 12:49 35.34918 26.31150 38706 ft 532 kts 131°
2026-02-17 12:50 35.30790 26.38675 38715 ft 532 kts 131°
2026-02-17 12:50 35.26660 26.46189 38716 ft 532 kts 131°
2026-02-17 12:51 35.20453 26.57451 38716 ft 532 kts 131°
2026-02-17 12:51 35.16317 26.64938 38743 ft 531 kts 131°
2026-02-17 12:52 35.12181 26.72406 38743 ft 530 kts 131°
2026-02-17 12:52 35.08044 26.79860 38752 ft 530 kts 131°
2026-02-17 12:53 35.03903 26.87305 38745 ft 531 kts 132°
2026-02-17 12:53 34.99744 26.94766 38769 ft 532 kts 132°
2026-02-17 12:54 34.95580 27.02222 38773 ft 532 kts 132°
2026-02-17 12:55 34.89330 27.13386 38792 ft 532 kts 132°
2026-02-17 12:55 34.85183 27.20772 38782 ft 532 kts 132°
2026-02-17 12:56 34.81007 27.28194 38792 ft 531 kts 132°
2026-02-17 12:56 34.76829 27.35606 38797 ft 531 kts 132°
2026-02-17 12:57 34.72641 27.43017 38810 ft 531 kts 132°
2026-02-17 12:57 34.68453 27.50416 38809 ft 531 kts 133°
2026-02-17 12:58 34.64265 27.57799 38804 ft 530 kts 133°
2026-02-17 12:58 34.60080 27.65161 38816 ft 529 kts 133°
2026-02-17 12:59 34.54547 27.74977 38859 ft 534 kts 129°
2026-02-17 12:59 34.52807 27.78996 38998 ft 541 kts 122°
2026-02-17 12:59 34.51246 27.83153 39204 ft 541 kts 120°
2026-02-17 13:00 34.49755 27.87341 39420 ft 541 kts 120°
2026-02-17 13:00 34.48297 27.91545 39592 ft 540 kts 119°
2026-02-17 13:00 34.46853 27.95745 39761 ft 540 kts 119°
2026-02-17 13:00 34.45411 27.99939 39932 ft 539 kts 119°
2026-02-17 13:01 34.43963 28.04125 40073 ft 539 kts 119°
2026-02-17 13:01 34.42510 28.08306 40209 ft 538 kts 120°
2026-02-17 13:01 34.41052 28.12477 40344 ft 538 kts 120°
2026-02-17 13:01 34.39591 28.16645 40466 ft 537 kts 120°
2026-02-17 13:02 34.38129 28.20804 40630 ft 537 kts 120°
2026-02-17 13:02 34.36668 28.24955 40774 ft 536 kts 120°
2026-02-17 13:03 34.32274 28.37404 40822 ft 536 kts 120°
2026-02-17 13:03 34.29337 28.45701 40853 ft 538 kts 120°
2026-02-17 13:04 34.26387 28.54014 40853 ft 538 kts 120°
2026-02-17 13:04 34.23432 28.62322 40853 ft 538 kts 120°
2026-02-17 13:05 34.20472 28.70622 40857 ft 538 kts 120°
2026-02-17 13:05 34.17506 28.78918 40865 ft 538 kts 121°
2026-02-17 13:06 34.14536 28.87201 40864 ft 538 kts 121°
2026-02-17 13:06 34.11559 28.95484 40867 ft 538 kts 121°
2026-02-17 13:07 34.07104 29.07837 40871 ft 538 kts 121°
2026-02-17 13:07 34.04111 29.16110 40874 ft 538 kts 121°
2026-02-17 13:08 34.01133 29.24321 40872 ft 538 kts 121°
2026-02-17 13:08 33.98128 29.32585 40883 ft 540 kts 121°
2026-02-17 13:09 33.95107 29.40870 40886 ft 540 kts 121°
2026-02-17 13:09 33.92082 29.49151 40890 ft 540 kts 121°
2026-02-17 13:10 33.89050 29.57429 40879 ft 540 kts 122°
2026-02-17 13:11 33.84487 29.69843 40893 ft 541 kts 122°
2026-02-17 13:11 33.81438 29.78113 40898 ft 541 kts 122°
2026-02-17 13:12 33.78385 29.86375 40905 ft 541 kts 122°
2026-02-17 13:12 33.75326 29.94629 40905 ft 540 kts 122°
2026-02-17 13:13 33.72275 30.02883 40901 ft 541 kts 121°
2026-02-17 13:13 33.69367 30.11235 40906 ft 543 kts 120°
2026-02-17 13:14 33.66507 30.19605 40919 ft 540 kts 120°
2026-02-17 13:14 33.63635 30.27926 40919 ft 539 kts 120°
2026-02-17 13:15 33.59291 30.40369 40875 ft 539 kts 121°
2026-02-17 13:15 33.56401 30.48617 40921 ft 533 kts 121°
2026-02-17 13:16 33.53534 30.56777 40924 ft 530 kts 121°
2026-02-17 13:16 33.50662 30.64920 40934 ft 530 kts 121°
2026-02-17 13:17 33.47786 30.73053 40930 ft 530 kts 121°
2026-02-17 13:17 33.44909 30.81178 40934 ft 530 kts 121°
2026-02-17 13:18 33.42042 30.89253 40935 ft 530 kts 121°
2026-02-17 13:19 33.36501 31.00305 40930 ft 507 kts 137°
2026-02-17 13:19 33.32172 31.06881 40941 ft 501 kts 139°
2026-02-17 13:20 33.27790 31.13347 40943 ft 500 kts 139°
2026-02-17 13:20 33.23419 31.19811 40950 ft 500 kts 138°
2026-02-17 13:21 33.19065 31.26282 40929 ft 499 kts 138°
2026-02-17 13:21 33.14724 31.32741 40953 ft 498 kts 138°
2026-02-17 13:22 33.10389 31.39180 40949 ft 498 kts 138°
2026-02-17 13:22 33.06050 31.45611 40954 ft 497 kts 138°
2026-02-17 13:23 32.99540 31.55236 40955 ft 497 kts 138°
2026-02-17 13:23 32.95211 31.61628 40960 ft 495 kts 139°
2026-02-17 13:24 32.90883 31.68002 40963 ft 495 kts 139°
2026-02-17 13:24 32.86584 31.74321 40966 ft 495 kts 139°
2026-02-17 13:25 32.82254 31.80678 40940 ft 494 kts 139°
2026-02-17 13:25 32.77936 31.87008 40967 ft 492 kts 139°
2026-02-17 13:26 32.73626 31.93315 40969 ft 491 kts 139°
2026-02-17 13:27 32.67157 32.02756 40976 ft 491 kts 139°
2026-02-17 13:27 32.62609 32.08681 40954 ft 476 kts 149°
2026-02-17 13:28 32.57443 32.13434 40978 ft 467 kts 154°
2026-02-17 13:28 32.52170 32.17907 40931 ft 465 kts 155°
2026-02-17 13:29 32.46886 32.22330 40981 ft 465 kts 155°
2026-02-17 13:29 32.41616 32.26765 40983 ft 465 kts 155°
2026-02-17 13:30 32.36349 32.31213 40984 ft 465 kts 155°
2026-02-17 13:30 32.31085 32.35662 40959 ft 465 kts 156°
2026-02-17 13:31 32.23195 32.42316 40985 ft 464 kts 156°
2026-02-17 13:31 32.17935 32.46742 40986 ft 465 kts 156°
2026-02-17 13:32 32.12663 32.51173 40991 ft 466 kts 156°
2026-02-17 13:32 32.07418 32.55569 40991 ft 465 kts 156°
2026-02-17 13:33 32.02139 32.59985 40993 ft 465 kts 156°
2026-02-17 13:33 31.96857 32.64400 40990 ft 466 kts 157°
2026-02-17 13:34 31.91534 32.68842 40992 ft 466 kts 157°
2026-02-17 13:35 31.83620 32.75435 41000 ft 467 kts 157°
2026-02-17 13:35 31.78312 32.79850 40999 ft 467 kts 157°
2026-02-17 13:36 31.73001 32.84262 41004 ft 467 kts 157°
2026-02-17 13:36 31.67692 32.88666 41004 ft 467 kts 157°
2026-02-17 13:37 31.62378 32.93067 41004 ft 468 kts 158°
2026-02-17 13:37 31.57059 32.97465 41007 ft 468 kts 158°
2026-02-17 13:38 31.51735 33.01861 41010 ft 468 kts 158°
2026-02-17 13:38 31.46409 33.06254 41009 ft 468 kts 158°
2026-02-17 13:39 31.38417 33.12831 41009 ft 467 kts 158°
2026-02-17 13:39 31.32917 33.16658 40996 ft 457 kts 164°
2026-02-17 13:40 31.27349 33.20209 41015 ft 455 kts 165°
2026-02-17 13:40 31.21774 33.23701 41012 ft 455 kts 165°
2026-02-17 13:41 31.16199 33.27195 41018 ft 455 kts 165°
2026-02-17 13:41 31.10628 33.30695 41018 ft 455 kts 165°
2026-02-17 13:42 31.05054 33.34197 41018 ft 455 kts 165°
2026-02-17 13:43 30.96693 33.39442 41028 ft 455 kts 165°
2026-02-17 13:43 30.91117 33.42934 41027 ft 455 kts 165°
2026-02-17 13:44 30.85539 33.46423 41026 ft 455 kts 165°
2026-02-17 13:44 30.79960 33.49907 41025 ft 455 kts 165°
2026-02-17 13:45 30.74382 33.53386 41031 ft 455 kts 165°
2026-02-17 13:45 30.68803 33.56863 41028 ft 455 kts 165°
2026-02-17 13:46 30.63268 33.60306 41029 ft 454 kts 165°
2026-02-17 13:46 30.57696 33.63767 41031 ft 454 kts 165°
2026-02-17 13:47 30.49335 33.68952 40988 ft 454 kts 165°
2026-02-17 13:47 30.44674 33.71840 41017 ft 452 kts 165°
2026-02-17 13:48 30.39140 33.75266 41018 ft 451 kts 165°
2026-02-17 13:48 30.33609 33.78681 41018 ft 450 kts 165°
2026-02-17 13:49 30.28118 33.82066 41015 ft 450 kts 165°
2026-02-17 13:49 30.22590 33.85471 41015 ft 450 kts 165°
2026-02-17 13:50 30.17021 33.88897 41015 ft 450 kts 165°
2026-02-17 13:51 30.08725 33.93994 41009 ft 450 kts 165°
2026-02-17 13:51 30.03233 33.97363 41005 ft 449 kts 165°
2026-02-17 13:52 29.97763 34.00728 41001 ft 437 kts 165°
2026-02-17 13:52 29.92379 34.04023 41005 ft 441 kts 165°
2026-02-17 13:53 29.86911 34.07342 41007 ft 447 kts 165°
2026-02-17 13:53 29.81382 34.10707 41008 ft 452 kts 165°
2026-02-17 13:54 29.75825 34.14100 40997 ft 452 kts 165°
2026-02-17 13:54 29.70296 34.17598 41001 ft 460 kts 160°
2026-02-17 13:55 29.65285 34.22519 40975 ft 492 kts 143°
2026-02-17 13:55 29.63241 34.25764 40994 ft 511 kts 133°
2026-02-17 13:55 29.61670 34.29512 40993 ft 531 kts 121°
2026-02-17 13:55 29.60696 34.33678 40987 ft 550 kts 109°
2026-02-17 13:56 29.60419 34.38125 40994 ft 567 kts 96°
2026-02-17 13:56 29.60466 34.42653 40991 ft 566 kts 98°
2026-02-17 13:56 29.60410 34.51680 40976 ft 558 kts 105°
2026-02-17 13:57 29.59744 34.56006 40975 ft 542 kts 116°
2026-02-17 13:57 29.58477 34.60001 40979 ft 522 kts 127°
2026-02-17 13:57 29.56677 34.63523 40971 ft 502 kts 139°
2026-02-17 13:57 29.54448 34.66504 40977 ft 483 kts 149°
2026-02-17 13:58 29.49492 34.71598 40976 ft 482 kts 149°
2026-02-17 13:58 29.47187 34.74467 40952 ft 497 kts 141°
2026-02-17 13:59 29.43737 34.81627 40961 ft 535 kts 119°
2026-02-17 13:59 29.42817 34.85822 40960 ft 547 kts 111°
2026-02-17 13:59 29.42144 34.90137 40962 ft 551 kts 108°
2026-02-17 13:59 29.41762 34.94549 40955 ft 564 kts 99°
2026-02-17 14:00 29.42003 34.99081 40967 ft 576 kts 88°
2026-02-17 14:00 29.43818 35.08104 40973 ft 582 kts 80°
2026-02-17 14:01 29.45987 35.17056 40981 ft 583 kts 79°
2026-02-17 14:01 29.48164 35.26016 40958 ft 582 kts 79°
2026-02-17 14:02 29.50265 35.34917 41006 ft 581 kts 80°
2026-02-17 14:02 29.52345 35.43894 40995 ft 583 kts 80°
2026-02-17 14:03 29.55494 35.57383 40996 ft 582 kts 79°
2026-02-17 14:03 29.57629 35.66354 40997 ft 582 kts 79°
2026-02-17 14:04 29.59757 35.75325 40996 ft 582 kts 79°
2026-02-17 14:04 29.61832 35.84288 40995 ft 577 kts 82°
2026-02-17 14:05 29.63356 35.93298 40996 ft 573 kts 86°
2026-02-17 14:05 29.64673 36.02322 40992 ft 572 kts 86°
2026-02-17 14:06 29.66053 36.11342 40989 ft 573 kts 85°
2026-02-17 14:07 29.68216 36.24811 41022 ft 574 kts 85°
2026-02-17 14:07 29.69674 36.33843 40988 ft 576 kts 85°
2026-02-17 14:08 29.71130 36.42908 40985 ft 577 kts 85°
2026-02-17 14:08 29.72605 36.51981 40966 ft 577 kts 85°
2026-02-17 14:09 29.74076 36.61046 40985 ft 576 kts 85°
2026-02-17 14:09 29.74618 36.70082 40982 ft 556 kts 104°
2026-02-17 14:10 29.73309 36.78730 40979 ft 546 kts 111°
2026-02-17 14:10 29.71612 36.87214 40995 ft 543 kts 113°
2026-02-17 14:11 29.68989 36.99911 40958 ft 545 kts 112°
2026-02-17 14:11 29.67272 37.08393 40988 ft 544 kts 112°
2026-02-17 14:12 29.65568 37.16860 40987 ft 544 kts 112°
2026-02-17 14:12 29.63860 37.25322 40978 ft 543 kts 112°
2026-02-17 14:13 29.62158 37.33721 40984 ft 543 kts 112°
2026-02-17 14:13 29.60440 37.42162 40983 ft 543 kts 112°
2026-02-17 14:14 29.58715 37.50608 40980 ft 543 kts 111°
2026-02-17 14:15 29.56123 37.63254 40989 ft 541 kts 112°
2026-02-17 14:15 29.54390 37.71670 40949 ft 541 kts 112°
2026-02-17 14:16 29.52654 37.80069 40988 ft 540 kts 111°
2026-02-17 14:16 29.50918 37.88446 40987 ft 539 kts 111°
2026-02-17 14:17 29.49177 37.96810 40949 ft 538 kts 111°
2026-02-17 14:17 29.47509 38.05178 40994 ft 538 kts 109°
2026-02-17 14:18 29.46053 38.13605 40995 ft 538 kts 108°
2026-02-17 14:18 29.44612 38.22026 40996 ft 538 kts 108°
2026-02-17 14:19 29.42389 38.34610 41002 ft 536 kts 108°
2026-02-17 14:19 29.40884 38.42983 41009 ft 536 kts 109°
2026-02-17 14:20 29.39374 38.51347 41007 ft 536 kts 109°
2026-02-17 14:20 29.37860 38.59713 41006 ft 536 kts 109°
2026-02-17 14:21 29.36339 38.68088 40996 ft 536 kts 109°
2026-02-17 14:21 29.34819 38.76439 41011 ft 535 kts 109°
2026-02-17 14:22 29.32528 38.88950 41009 ft 535 kts 109°
2026-02-17 14:23 29.30056 39.01349 41007 ft 530 kts 111°
2026-02-17 14:23 29.28290 39.09547 41010 ft 530 kts 111°
2026-02-17 14:24 29.26540 39.17745 41008 ft 530 kts 110°
2026-02-17 14:24 29.25114 39.24486 41012 ft 529 kts 110°
2026-02-17 14:25 29.23381 39.32697 41015 ft 529 kts 110°
2026-02-17 14:25 29.21648 39.40885 41011 ft 529 kts 110°
2026-02-17 14:26 29.19911 39.49060 41020 ft 528 kts 110°
2026-02-17 14:27 29.17297 39.61305 41020 ft 528 kts 110°
2026-02-17 14:27 29.15550 39.69460 41028 ft 528 kts 110°
2026-02-17 14:28 29.13797 39.77614 41026 ft 528 kts 110°
2026-02-17 14:28 29.12048 39.85719 41028 ft 528 kts 110°
2026-02-17 14:29 29.10324 39.93878 41029 ft 529 kts 108°
2026-02-17 14:29 29.08997 40.02177 41033 ft 532 kts 105°
2026-02-17 14:30 29.07788 40.10510 41036 ft 531 kts 105°
2026-02-17 14:31 29.05205 40.27156 41030 ft 529 kts 106°
2026-02-17 14:31 29.03876 40.35425 41052 ft 529 kts 106°
2026-02-17 14:32 29.02552 40.43631 41059 ft 529 kts 106°
2026-02-17 14:32 29.01217 40.51888 41050 ft 528 kts 106°
2026-02-17 14:33 28.99881 40.60131 41053 ft 527 kts 106°
2026-02-17 14:33 28.97869 40.72481 41055 ft 527 kts 106°
2026-02-17 14:34 28.96520 40.80711 41055 ft 527 kts 106°
2026-02-17 14:35 28.94708 40.91715 41037 ft 527 kts 106°
2026-02-17 14:35 28.93350 40.99929 41047 ft 526 kts 106°
2026-02-17 14:36 28.91988 41.08134 41051 ft 526 kts 106°
2026-02-17 14:36 28.90622 41.16331 41041 ft 526 kts 106°
2026-02-17 14:37 28.89251 41.24520 41041 ft 525 kts 106°
2026-02-17 14:37 28.87877 41.32701 41043 ft 525 kts 106°
2026-02-17 14:38 28.86498 41.40884 41042 ft 525 kts 106°
2026-02-17 14:38 28.85128 41.48994 41042 ft 524 kts 106°
2026-02-17 14:39 28.83046 41.61235 41031 ft 524 kts 106°
2026-02-17 14:39 28.81652 41.69383 41037 ft 523 kts 106°
2026-02-17 14:40 28.80254 41.77528 41039 ft 523 kts 106°
2026-02-17 14:41 28.78154 41.89722 41031 ft 522 kts 105°
2026-02-17 14:41 28.76749 41.97838 41033 ft 522 kts 105°
2026-02-17 14:42 28.75341 42.05941 41027 ft 521 kts 105°
2026-02-17 14:42 28.73929 42.14032 41027 ft 520 kts 105°
2026-02-17 14:43 28.71804 42.26162 41031 ft 520 kts 105°
2026-02-17 14:43 28.70381 42.34246 41036 ft 521 kts 105°
2026-02-17 14:44 28.68954 42.42328 41025 ft 521 kts 105°
2026-02-17 14:44 28.67522 42.50404 41022 ft 520 kts 105°
2026-02-17 14:45 28.66087 42.58470 41035 ft 520 kts 105°
2026-02-17 14:45 28.64524 42.66428 41030 ft 516 kts 111°
2026-02-17 14:46 28.61692 42.73830 41026 ft 508 kts 121°
2026-02-17 14:47 28.56733 42.84479 41027 ft 507 kts 123°
2026-02-17 14:47 28.53378 42.91539 41031 ft 507 kts 123°
2026-02-17 14:48 28.50040 42.98610 41032 ft 507 kts 123°
2026-02-17 14:48 28.46712 43.05683 41029 ft 508 kts 122°
2026-02-17 14:49 28.43382 43.12755 41032 ft 507 kts 122°
2026-02-17 14:49 28.40051 43.19817 41032 ft 507 kts 122°
2026-02-17 14:50 28.36715 43.26874 41031 ft 507 kts 122°
2026-02-17 14:50 28.33374 43.33927 41032 ft 507 kts 122°
2026-02-17 14:51 28.28357 43.44499 41024 ft 507 kts 122°
2026-02-17 14:51 28.25033 43.51488 41031 ft 507 kts 122°
2026-02-17 14:52 28.21684 43.58518 41031 ft 506 kts 122°
2026-02-17 14:52 28.18330 43.65540 41028 ft 506 kts 122°
2026-02-17 14:53 28.14951 43.72529 41033 ft 505 kts 122°
2026-02-17 14:53 28.11564 43.79503 41036 ft 505 kts 122°
2026-02-17 14:54 28.08177 43.86475 41039 ft 505 kts 122°
2026-02-17 14:55 28.03109 43.96901 41042 ft 503 kts 122°
2026-02-17 14:55 27.99731 44.03837 41039 ft 503 kts 122°
2026-02-17 14:56 27.96356 44.10756 41048 ft 502 kts 122°
2026-02-17 14:56 27.92986 44.17676 41051 ft 502 kts 122°
2026-02-17 14:57 27.89658 44.24622 41051 ft 502 kts 121°
2026-02-17 14:57 27.86342 44.31558 41056 ft 501 kts 121°
2026-02-17 14:58 27.83021 44.38477 41056 ft 501 kts 121°
2026-02-17 14:58 27.79691 44.45390 41057 ft 501 kts 121°
2026-02-17 14:59 27.74698 44.55733 41064 ft 500 kts 121°
2026-02-17 14:59 27.71367 44.62617 41064 ft 500 kts 121°
2026-02-17 15:00 27.68034 44.69496 41078 ft 499 kts 121°
2026-02-17 15:00 27.64968 44.76527 41073 ft 502 kts 112°
2026-02-17 15:01 27.63130 44.84146 41070 ft 505 kts 104°
2026-02-17 15:01 27.61715 44.91900 41069 ft 505 kts 103°
2026-02-17 15:02 27.60367 44.99619 41068 ft 505 kts 103°
2026-02-17 15:03 27.58258 45.11250 41074 ft 505 kts 103°
2026-02-17 15:03 27.56822 45.18994 41075 ft 505 kts 104°
2026-02-17 15:04 27.55382 45.26741 41077 ft 505 kts 103°
2026-02-17 15:04 27.53932 45.34483 41073 ft 505 kts 103°
2026-02-17 15:05 27.52479 45.42212 41083 ft 504 kts 103°
2026-02-17 15:05 27.51023 45.49939 41083 ft 504 kts 103°
2026-02-17 15:06 27.49565 45.57660 41083 ft 504 kts 103°
2026-02-17 15:06 27.48103 45.65379 41086 ft 504 kts 104°
2026-02-17 15:07 27.45902 45.76951 41090 ft 503 kts 103°
2026-02-17 15:07 27.44432 45.84653 41090 ft 503 kts 103°
2026-02-17 15:08 27.42957 45.92353 41085 ft 503 kts 103°
2026-02-17 15:08 27.41480 46.00044 41086 ft 503 kts 104°
2026-02-17 15:09 27.39996 46.07739 41087 ft 503 kts 103°
2026-02-17 15:09 27.38511 46.15422 41087 ft 502 kts 103°
2026-02-17 15:10 27.37022 46.23101 41093 ft 502 kts 104°
2026-02-17 15:11 27.34801 46.34614 41088 ft 502 kts 103°
2026-02-17 15:11 27.33465 46.42271 41096 ft 502 kts 102°
2026-02-17 15:12 27.32147 46.49986 41091 ft 502 kts 102°
2026-02-17 15:12 27.30810 46.57691 41085 ft 502 kts 102°
2026-02-17 15:13 27.29457 46.65385 41097 ft 502 kts 102°
2026-02-17 15:13 27.28094 46.73080 41094 ft 502 kts 102°
2026-02-17 15:14 27.26729 46.80768 41094 ft 502 kts 102°
2026-02-17 15:14 27.25359 46.88458 41097 ft 502 kts 102°
2026-02-17 15:15 27.23299 46.99981 41096 ft 501 kts 102°
2026-02-17 15:15 27.21920 47.07659 41099 ft 502 kts 102°
2026-02-17 15:16 27.20536 47.15342 41095 ft 502 kts 102°
2026-02-17 15:16 27.19149 47.23017 41083 ft 502 kts 102°
2026-02-17 15:17 27.17757 47.30694 41097 ft 501 kts 103°
2026-02-17 15:17 27.16361 47.38369 41097 ft 501 kts 103°
2026-02-17 15:18 27.14961 47.46041 41097 ft 502 kts 103°
2026-02-17 15:19 27.12854 47.57552 41096 ft 502 kts 103°
2026-02-17 15:19 27.11434 47.65223 41096 ft 502 kts 103°
2026-02-17 15:20 27.10006 47.72894 41095 ft 502 kts 103°
2026-02-17 15:20 27.08576 47.80565 41091 ft 502 kts 103°
2026-02-17 15:21 27.07152 47.88187 41093 ft 502 kts 103°
2026-02-17 15:21 27.05716 47.95857 41092 ft 503 kts 103°
2026-02-17 15:22 27.04155 48.03494 41084 ft 502 kts 105°
2026-02-17 15:22 27.02417 48.11082 41092 ft 502 kts 105°
2026-02-17 15:23 26.99821 48.22467 41083 ft 502 kts 105°
2026-02-17 15:23 26.98405 48.28776 41086 ft 502 kts 105°
2026-02-17 15:24 26.96704 48.36371 41082 ft 502 kts 105°
2026-02-17 15:24 26.94999 48.43969 41079 ft 502 kts 105°
2026-02-17 15:25 26.93290 48.51558 41078 ft 502 kts 105°
2026-02-17 15:25 26.91576 48.59144 41075 ft 502 kts 105°
2026-02-17 15:26 26.89858 48.66730 41074 ft 502 kts 105°
2026-02-17 15:27 26.87310 48.78117 41073 ft 503 kts 103°
2026-02-17 15:27 26.85924 48.85791 41073 ft 503 kts 101°
2026-02-17 15:28 26.84609 48.93484 41071 ft 503 kts 101°
2026-02-17 15:28 26.83250 49.01164 41088 ft 503 kts 102°
2026-02-17 15:29 26.81856 49.08837 41067 ft 503 kts 102°
2026-02-17 15:29 26.80449 49.16500 41076 ft 503 kts 102°
2026-02-17 15:30 26.79037 49.24168 41063 ft 503 kts 102°
2026-02-17 15:30 26.77634 49.31772 41079 ft 502 kts 102°
2026-02-17 15:31 26.75008 49.43111 41076 ft 502 kts 108°
2026-02-17 15:31 26.72822 49.50527 41072 ft 502 kts 109°
2026-02-17 15:32 26.70589 49.57924 41067 ft 502 kts 109°
2026-02-17 15:32 26.68356 49.65326 41062 ft 502 kts 109°
2026-02-17 15:33 26.66149 49.72687 41054 ft 502 kts 109°
2026-02-17 15:33 26.63926 49.80083 41054 ft 502 kts 109°
2026-02-17 15:34 26.61701 49.87476 41049 ft 502 kts 109°
2026-02-17 15:34 26.60592 49.91157 40849 ft 497 kts 109°
2026-02-17 15:35 26.58379 49.98483 39396 ft 501 kts 108°
2026-02-17 15:35 26.57253 50.02183 38622 ft 505 kts 108°
2026-02-17 15:35 26.56122 50.05899 37872 ft 506 kts 108°
2026-02-17 15:35 26.54991 50.09617 37195 ft 505 kts 108°
2026-02-17 15:36 26.53862 50.13328 36497 ft 505 kts 108°
2026-02-17 15:36 26.52733 50.17039 35782 ft 505 kts 108°
2026-02-17 15:36 26.51602 50.20757 35056 ft 506 kts 109°
2026-02-17 15:36 26.50468 50.24480 34246 ft 508 kts 109°
2026-02-17 15:37 26.49325 50.28230 33330 ft 511 kts 109°
2026-02-17 15:37 26.48177 50.31990 32454 ft 513 kts 109°
2026-02-17 15:37 26.47026 50.35761 31560 ft 514 kts 109°
2026-02-17 15:37 26.45874 50.39543 30738 ft 516 kts 108°
2026-02-17 15:38 26.44769 50.43373 30432 ft 522 kts 108°
2026-02-17 15:38 26.43690 50.47248 30061 ft 524 kts 107°
2026-02-17 15:38 26.42621 50.51134 29626 ft 524 kts 107°
2026-02-17 15:39 26.40489 50.58863 28812 ft 518 kts 107°
2026-02-17 15:39 26.39424 50.62691 28428 ft 515 kts 107°
2026-02-17 15:39 26.38369 50.66441 28042 ft 512 kts 107°
2026-02-17 15:39 26.37298 50.70215 27643 ft 509 kts 107°
2026-02-17 15:40 26.36230 50.73964 27249 ft 506 kts 107°
2026-02-17 15:40 26.35169 50.77692 26859 ft 503 kts 107°
2026-02-17 15:40 26.34112 50.81392 26477 ft 500 kts 107°
2026-02-17 15:40 26.33059 50.85071 26086 ft 496 kts 107°
2026-02-17 15:41 26.32012 50.88724 25706 ft 493 kts 107°
2026-02-17 15:41 26.30957 50.92354 25322 ft 491 kts 109°
2026-02-17 15:41 26.29583 50.95830 25117 ft 490 kts 116°
2026-02-17 15:41 26.28022 50.99212 25070 ft 490 kts 117°
2026-02-17 15:42 26.26400 51.02546 25064 ft 489 kts 118°
2026-02-17 15:42 26.24744 51.05853 25061 ft 489 kts 118°
2026-02-17 15:42 26.23075 51.09151 25068 ft 489 kts 118°
2026-02-17 15:43 26.19730 51.15737 25065 ft 488 kts 118°
2026-02-17 15:43 26.18062 51.19028 25065 ft 488 kts 118°
2026-02-17 15:43 26.16398 51.22324 25065 ft 488 kts 118°
2026-02-17 15:43 26.14676 51.25570 24981 ft 483 kts 123°
2026-02-17 15:44 26.12638 51.28508 24360 ft 479 kts 132°
2026-02-17 15:44 26.10145 51.30972 23586 ft 480 kts 144°
2026-02-17 15:44 26.07223 51.32735 22839 ft 477 kts 159°
2026-02-17 15:44 26.04016 51.33650 22614 ft 476 kts 170°
2026-02-17 15:45 26.00740 51.34183 22191 ft 476 kts 173°
2026-02-17 15:45 25.97459 51.34641 21738 ft 475 kts 173°
2026-02-17 15:45 25.94189 51.35090 21287 ft 473 kts 173°
2026-02-17 15:45 25.90929 51.35542 20849 ft 471 kts 172°
2026-02-17 15:46 25.87687 51.35996 20420 ft 469 kts 172°
2026-02-17 15:46 25.84459 51.36449 19999 ft 466 kts 172°
2026-02-17 15:46 25.81248 51.36902 19573 ft 463 kts 172°
2026-02-17 15:47 25.75035 51.38051 18754 ft 443 kts 168°
2026-02-17 15:47 25.72036 51.38659 18338 ft 435 kts 168°
2026-02-17 15:47 25.69128 51.39241 17879 ft 427 kts 168°
2026-02-17 15:47 25.66225 51.39814 17414 ft 420 kts 168°
2026-02-17 15:48 25.63378 51.40372 16962 ft 413 kts 168°
2026-02-17 15:48 25.60572 51.40919 16515 ft 406 kts 168°
2026-02-17 15:48 25.57839 51.41449 16077 ft 388 kts 168°
2026-02-17 15:48 25.55235 51.41953 15495 ft 374 kts 168°
2026-02-17 15:49 25.52695 51.42446 15148 ft 370 kts 168°
2026-02-17 15:49 25.50154 51.42940 15061 ft 370 kts 168°
2026-02-17 15:49 25.47623 51.43430 15054 ft 369 kts 168°
2026-02-17 15:49 25.45085 51.43922 15059 ft 371 kts 168°
2026-02-17 15:50 25.42550 51.44412 15056 ft 369 kts 168°
2026-02-17 15:50 25.40021 51.44900 15056 ft 369 kts 168°
2026-02-17 15:50 25.35041 51.45861 13999 ft 360 kts 168°
2026-02-17 15:51 25.32572 51.46338 12988 ft 360 kts 168°
2026-02-17 15:51 25.30115 51.46812 12052 ft 356 kts 168°
2026-02-17 15:51 25.27695 51.47278 11198 ft 351 kts 168°
2026-02-17 15:51 25.25321 51.47735 10367 ft 345 kts 168°
2026-02-17 15:52 25.22979 51.48195 9505 ft 339 kts 166°
2026-02-17 15:52 25.20752 51.48936 8596 ft 331 kts 156°
2026-02-17 15:52 25.18632 51.49858 8078 ft 323 kts 155°
2026-02-17 15:52 25.16584 51.50773 7849 ft 311 kts 155°
2026-02-17 15:53 25.14602 51.51656 7550 ft 304 kts 155°
2026-02-17 15:53 25.12679 51.52511 7161 ft 301 kts 155°
2026-02-17 15:53 25.10751 51.53365 6802 ft 297 kts 155°
2026-02-17 15:53 25.08853 51.54209 6462 ft 292 kts 154°
2026-02-17 15:54 25.06984 51.55034 6140 ft 288 kts 155°
2026-02-17 15:54 25.05130 51.55853 5772 ft 286 kts 155°
2026-02-17 15:54 25.01463 51.57468 5197 ft 283 kts 155°
2026-02-17 15:55 24.99634 51.58271 5008 ft 282 kts 155°
2026-02-17 15:55 24.97808 51.59075 4860 ft 282 kts 155°
2026-02-17 15:55 24.95986 51.59863 4743 ft 281 kts 156°
2026-02-17 15:55 24.94165 51.60637 4609 ft 280 kts 156°
2026-02-17 15:56 24.92511 51.61672 4497 ft 266 kts 135°
2026-02-17 15:56 24.91518 51.63274 4390 ft 246 kts 107°
2026-02-17 15:56 24.91358 51.65058 4270 ft 228 kts 81°
2026-02-17 15:56 24.91673 51.66731 4173 ft 221 kts 73°
2026-02-17 15:57 24.92267 51.68264 4073 ft 218 kts 50°
2026-02-17 15:57 24.93468 51.69232 3975 ft 216 kts 22°
2026-02-17 15:57 24.94908 51.69700 3882 ft 216 kts 13°
2026-02-17 15:57 24.96370 51.70066 3772 ft 215 kts 12°
2026-02-17 15:58 24.97831 51.70426 3689 ft 215 kts 13°
2026-02-17 15:58 24.99300 51.70775 3580 ft 216 kts 12°
2026-02-17 15:58 25.02275 51.70744 3506 ft 218 kts 346°
2026-02-17 15:59 25.03661 51.70202 3519 ft 203 kts 340°
2026-02-17 15:59 25.04914 51.69636 3518 ft 189 kts 340°
2026-02-17 15:59 25.06123 51.69096 3504 ft 187 kts 340°
2026-02-17 15:59 25.07332 51.68563 3498 ft 187 kts 340°
2026-02-17 16:00 25.08543 51.68033 3477 ft 188 kts 340°
2026-02-17 16:00 25.09740 51.67515 3307 ft 187 kts 340°
2026-02-17 16:00 25.10946 51.66985 3042 ft 186 kts 340°
2026-02-17 16:00 25.12144 51.66453 2773 ft 186 kts 339°
2026-02-17 16:01 25.13338 51.65926 2538 ft 182 kts 340°
2026-02-17 16:01 25.14503 51.65413 2285 ft 179 kts 340°
2026-02-17 16:01 25.15627 51.64916 2042 ft 168 kts 340°
2026-02-17 16:01 25.16692 51.64446 1823 ft 164 kts 340°
2026-02-17 16:02 25.17752 51.63978 1626 ft 164 kts 340°
2026-02-17 16:02 25.18799 51.63516 1402 ft 159 kts 341°
2026-02-17 16:02 25.20743 51.62649 990 ft 143 kts 339°
2026-02-17 16:03 25.21624 51.62237 858 ft 135 kts 339°
2026-02-17 16:03 25.22494 51.61861 692 ft 133 kts 341°
2026-02-17 16:03 25.23354 51.61494 517 ft 131 kts 342°
2026-02-17 16:03 25.24207 51.61134 366 ft 132 kts 341°
2026-02-17 16:04 25.25062 51.60752 177 ft 132 kts 339°
2026-02-17 16:04 25.25911 51.60384 36 ft 129 kts 341°
2026-02-17 16:04 25.26668 51.60053 24 ft 95 kts 338°
2026-02-17 16:04 25.27053 51.59884 26 ft 44 kts 338°
2026-02-17 16:05 25.27339 51.59829 25 ft 40 kts
2026-02-17 16:05 25.27413 51.59906 27 ft 11 kts 106°
2026-02-17 16:05 25.27358 51.59952 26 ft 11 kts 155°
2026-02-17 16:05 25.27277 51.59989 27 ft 14 kts 159°
2026-02-17 16:06 25.27175 51.60032 26 ft 17 kts 159°
2026-02-17 16:06 25.27056 51.60091 32 ft 19 kts 140°
2026-02-17 16:06 25.27098 51.60334 28 ft 18 kts 67°
2026-02-17 16:07 25.27149 51.60472 28 ft 20 kts 68°
2026-02-17 16:07 25.27204 51.60625 28 ft 23 kts 68°
2026-02-17 16:07 25.27266 51.60793 28 ft 25 kts 68°
2026-02-17 16:07 25.27333 51.60976 28 ft 27 kts 68°
2026-02-17 16:08 25.27405 51.61174 28 ft 29 kts 68°
2026-02-17 16:08 25.27477 51.61527 28 ft 20 kts 149°
2026-02-17 16:08 25.27342 51.61591 28 ft 22 kts 158°
2026-02-17 16:09 25.27188 51.61660 28 ft 25 kts 158°
2026-02-17 16:09 25.27050 51.61721 28 ft 19 kts 159°
2026-02-17 16:09 25.26915 51.61780 28 ft 22 kts 158°
2026-02-17 16:09 25.26785 51.61837 28 ft 14 kts 158°
2026-02-17 16:10 25.26716 51.61868 28 ft 10 kts 158°
2026-02-17 16:10 25.26646 51.61899 28 ft 13 kts 158°
2026-02-17 16:10 25.26531 51.61901 28 ft 8 kts 239°
2026-02-17 16:11 25.26505 51.61833 28 ft 11 kts 247°
2026-02-17 16:11 25.26479 51.61765 29 ft 4 kts 248°
2026-02-17 16:11 25.26461 51.61735 29 ft 5 kts 218°
2026-02-17 16:11 25.26417 51.61724 29 ft 8 kts 187°
2026-02-17 16:12 25.26382 51.61720 28 ft 2 kts 183°
2026-02-17 16:12 25.26377 51.61720 28 ft 0 kts 183°
2026-02-17 16:13 25.24672 51.60929 254 ft 132 kts 340°
2026-02-17 16:13 25.25718 51.60467 45 ft 131 kts 341°
2026-02-17 16:13 25.25828 51.60420 40 ft 120 kts 341°